Weather in Belyayevka

Russia / Volgograd Oblast     50°18′22″N   46°13′09″E
temp.,
°C
wind,
m/s
gust,
m/s
humid.,
%
clouds,
%
prec.,
mm/h
press.,
hPa
HPBL,
m
6 august, fri
fri600:00+21ne354295 0.0 101687
03:00+20ne334710 0.0 101626
06:00+21ne34456 0.0 1016131
09:00+27ene34295 0.0 10161094
12:00+30ene43223 0.0 10152261
15:00+32ene44195 0.0 10142433
18:00+30ene54215 0.0 10132221
21:00+25ene4830100 0.0 1014124
7 august, sat
sat700:00+22ene4736100 0.0 1014116
03:00+21e4736100 0.0 1014110
06:00+22e493596 0.0 1015219
09:00+29ese6619100 0.0 10141036
12:00+33e5516100 0.0 10132158
15:00+35e451466 0.0 10122586
18:00+33e4616100 0.0 1012248
21:00+28e4521100 0.0 101370
8 august, sun
sun800:00+26e492678 0.0 1013148
03:00+23e4113030 0.0 1014202
06:00+25ese6132875 0.0 1015374
09:00+32ese8918100 0.0 10151046
12:00+35ese7815100 0.0 10152240
15:00+35e7814100 0.0 10142208
18:00+34e71018100 0.0 1014863
21:00+30e61323100 0.0 1015336
9 august, mon
mon900:00+29e81526100 0.0 1015484
03:00+27ene3431100 0.0 101659
06:00+27ene51132100 0.0 1016635
09:00+32ese9112297 0.0 10161101
12:00+32se8918100 0.0 10171422
15:00+33ese6918100 0.0 1016724
18:00+33e6918100 0.0 1015853
21:00+29ene4722100 0.0 1016100
10 august, tue
tue1000:00+27ene5102359 0.0 1016184
03:00+26e6132645 0.0 1015283
06:00+26ene6123093 0.0 1015399
09:00+32e81022100 0.0 1014970
12:00+35ese8917100 0.0 10121762
15:00+37ese81016100 0.0 10112440
18:00+34se6919100 0.0 1011959
21:00+30ese5102898 0.0 1011335